GW7733 Weather Reports


time (UTC)temp
C
wind
direction
speed
KPH
gust
KPH
rain 1hr
cm
rain 24hr
cm
rain mn
cm
humidity
%
barometer
mb
20260906093016 22 0.0 0.0 0.00 0.00 0.00 91 1014.5
20260906091816 22 0.0 1.6 0.00 0.00 0.00 91 1014.5
20260906090636 22 0.0 0.0 0.00 0.00 0.00 90 1014.4
20260906085436 22 0.0 0.0 0.00 0.00 0.00 90 1014.2
20260906084216 22 299 0.0 1.6 0.00 0.00 0.00 89 1014.1
20260906083016 22 0.0 0.0 0.00 0.00 0.00 89 1013.9
20260906081816 22 327 0.0 1.6 0.00 0.00 0.00 89 1013.9
20260906080615 22 327 0.0 1.6 0.00 0.00 0.00 89 1014.1
20260906075416 22 0.0 1.6 0.00 0.00 0.00 89 1014.0
20260906074216 23 327 0.0 1.6 0.00 0.00 0.00 88 1014.0
20260906073016 23 0.0 0.0 0.00 0.00 0.00 88 1014.0
20260906071816 23 327 0.0 1.6 0.00 0.00 0.00 87 1014.2
20260906070615 23 327 0.0 1.6 0.00 0.00 0.00 87 1014.2
20260906065415 23 335 0.0 1.6 0.00 0.00 0.00 86 1014.2
20260906064215 23 342 1.6 3.2 0.00 0.00 0.00 86 1014.3
20260906063015 23 334 1.6 1.6 0.00 0.00 0.00 86 1014.3
20260906061835 23 350 0.0 3.2 0.00 0.00 0.00 86 1014.5
20260906060615 24 319 0.0 3.2 0.00 0.00 0.00 86 1014.6
20260906055416 24 319 0.0 3.2 0.00 0.00 0.00 86 1014.7
20260906054215 24 8 0.0 3.2 0.00 0.00 0.00 85 1014.8
20260906053015 24 343 1.6 3.2 0.00 0.00 0.00 85 1014.7
20260906051815 24 343 0.0 1.6 0.00 0.00 0.00 85 1014.7
20260906050615 25 351 1.6 3.2 0.00 0.00 0.00 84 1014.8
20260906045415 25 209 0.0 1.6 0.00 0.00 0.00 83 1014.8
20260906044235 25 198 0.0 1.6 0.00 0.00 0.00 83 1014.8
20260906043035 25 257 0.0 1.6 0.00 0.00 0.00 82 1014.8
20260906041815 25 0.0 1.6 0.00 0.00 0.00 81 1014.9
20260906040615 25 228 0.0 1.6 0.00 0.00 0.00 80 1014.9
20260906035416 25 248 0.0 1.6 0.00 0.00 0.00 79 1015.2
20260906034216 26 210 0.0 1.6 0.00 0.00 0.00 79 1015.2
20260906033036 26 145 1.6 3.2 0.00 0.00 0.00 78 1015.3
20260906031816 26 36 0.0 1.6 0.00 0.00 0.00 78 1015.4
20260906030616 26 330 1.6 1.6 0.00 0.00 0.00 77 1015.4
20260906025416 26 313 1.6 3.2 0.00 0.00 0.00 75 1015.4
20260906024216 26 83 0.0 1.6 0.00 0.00 0.00 76 1015.3
20260906023016 26 19 0.0 1.6 0.00 0.00 0.00 77 1015.3
20260906021816 26 284 1.6 3.2 0.00 0.00 0.00 77 1015.4
20260906020616 26 284 1.6 1.6 0.00 0.00 0.00 76 1015.4
20260906015416 26 284 0.0 1.6 0.00 0.00 0.00 75 1015.1
20260906014216 26 0.0 0.0 0.00 0.00 0.00 74 1014.8
20260906013016 26 284 0.0 1.6 0.00 0.00 0.00 73 1014.7
20260906011816 26 0.0 1.6 0.00 0.00 0.00 72 1014.6
20260906010636 27 284 0.0 1.6 0.00 0.00 0.00 72 1014.2
20260906005416 27 0.0 1.6 0.00 0.00 0.00 71 1014.0
20260906004216 27 284 0.0 1.6 0.00 0.00 0.00 70 1014.3
20260906003016 27 306 0.0 1.6 0.00 0.00 0.00 69 1014.2
20260906001815 27 71 0.0 3.2 0.00 0.00 0.00 69 1014.1
20260906000616 28 249 1.6 3.2 0.00 0.00 0.00 67 1014.2
20260905235416 28 327 0.0 1.6 0.00 0.00 0.00 66 1013.8
20260905234256 28 326 1.6 4.8 0.00 0.00 0.00 64 1014.0
20260905233016 29 348 0.0 3.2 0.00 0.00 0.00 64 1013.9
20260905231815 29 348 0.0 3.2 0.00 0.00 0.00 63 1013.9
20260905230635 30 323 0.0 3.2 0.00 0.00 0.00 61 1013.8
20260905225415 30 123 1.6 4.8 0.00 0.00 0.00 60 1013.7
20260905224235 30 102 3.2 4.8 0.00 0.00 0.00 57 1013.5
20260905223055 31 230 0.0 3.2 0.00 0.00 0.00 58 1013.6
20260905221815 32 314 1.6 6.4 0.00 0.00 0.00 57 1013.4
20260905220617 33 181 3.2 6.4 0.00 0.00 0.00 53 1013.6
20260905215415 37 310 8.0 25.7 0.00 0.00 0.00 43 1013.5
20260905214215 37 194 1.6 4.8 0.00 0.00 0.00 41 1012.7
20260905213015 38 204 0.0 3.2 0.00 0.00 0.00 40 1012.8
20260905211815 38 187 3.2 8.0 0.00 0.00 0.00 41 1012.9
20260905210615 38 172 3.2 8.0 0.00 0.00 0.00 41 1013.1
20260905205415 37 301 1.6 9.7 0.00 0.00 0.00 43 1013.3
20260905204215 37 176 3.2 6.4 0.00 0.00 0.00 43 1013.2
20260905203015 37 151 3.2 11.3 0.00 0.00 0.00 43 1013.0
20260905201815 37 209 3.2 9.7 0.00 0.00 0.00 42 1013.2
20260905200635 37 166 3.2 6.4 0.00 0.00 0.00 44 1013.3
20260905195435 37 176 4.8 8.0 0.00 0.00 0.00 44 1013.6
20260905194215 37 176 3.2 6.4 0.00 0.00 0.00 45 1013.6
20260905193015 37 211 3.2 8.0 0.00 0.00 0.00 47 1013.8
20260905191815 37 180 4.8 12.9 0.00 0.00 0.00 47 1013.9
20260905190615 37 170 1.6 6.4 0.00 0.00 0.00 49 1014.0
20260905185415 36 80 1.6 6.4 0.00 0.00 0.00 48 1014.3
20260905184215 37 78 3.2 9.7 0.00 0.00 0.00 47 1014.4
20260905183015 37 43 3.2 4.8 0.00 0.00 0.00 47 1014.6
20260905181815 36 126 1.6 4.8 0.00 0.00 0.00 49 1014.8
20260905180615 36 177 3.2 6.4 0.00 0.00 0.00 49 1015.0
20260905175415 36 118 1.6 6.4 0.00 0.00 0.00 51 1015.2
20260905174215 35 137 1.6 4.8 0.00 0.00 0.00 52 1015.3
20260905173035 35 101 3.2 4.8 0.00 0.00 0.00 52 1015.5
20260905171815 35 161 4.8 9.7 0.00 0.00 0.00 52 1015.5
20260905170635 35 56 1.6 6.4 0.00 0.00 0.00 54 1015.6
20260905165415 35 184 3.2 9.7 0.00 0.00 0.00 53 1016.0
20260905164217 35 180 1.6 8.0 0.00 0.00 0.00 53 1016.1
20260905163037 35 230 3.2 6.4 0.00 0.00 0.00 55 1016.4
20260905161817 34 148 3.2 6.4 0.00 0.00 0.00 58 1016.6
20260905160617 33 169 4.8 8.0 0.00 0.00 0.00 59 1016.8
20260905155416 33 162 4.8 9.7 0.00 0.00 0.00 59 1016.9
20260905154217 33 10 3.2 4.8 0.00 0.00 0.00 61 1017.1
20260905153016 32 117 1.6 4.8 0.00 0.00 0.00 63 1017.1
20260905151816 32 349 1.6 6.4 0.00 0.00 0.00 65 1017.0
20260905150637 32 200 3.2 6.4 0.00 0.00 0.00 67 1017.3
20260905145416 31 25 1.6 4.8 0.00 0.00 0.00 70 1017.4
20260905144216 30 6 1.6 6.4 0.00 0.00 0.00 72 1017.6
20260905143016 30 312 3.2 6.4 0.00 0.00 0.00 75 1017.5
20260905141816 29 351 1.6 3.2 0.00 0.00 0.00 76 1017.7
20260905140616 28 6 1.6 3.2 0.00 0.00 0.00 79 1017.7
20260905135416 27 0 1.6 3.2 0.00 0.00 0.00 84 1017.8
20260905134216 26 307 1.6 6.4 0.00 0.00 0.00 87 1017.8
20260905133016 25 199 1.6 6.4 0.00 0.00 0.00 90 1017.7
20260905131836 25 259 1.6 4.8 0.00 0.00 0.00 93 1017.7
20260905130616 24 207 3.2 6.4 0.00 0.00 0.00 94 1017.9
20260905125416 24 191 1.6 4.8 0.00 0.00 0.00 96 1017.8
20260905124216 23 257 1.6 3.2 0.00 0.00 0.00 96 1017.8
20260905123016 23 250 0.0 3.2 0.00 0.00 0.00 97 1017.6
20260905121816 23 298 0.0 1.6 0.00 0.00 0.00 97 1017.5
20260905120616 23 209 0.0 1.6 0.00 0.00 0.00 97 1017.5
20260905115416 23 209 0.0 1.6 0.00 0.00 0.00 96 1017.4
20260905114216 22 173 0.0 3.2 0.00 0.00 0.00 96 1017.4
20260905113016 22 186 0.0 3.2 0.00 0.00 0.00 96 1017.5
20260905111816 22 246 0.0 1.6 0.00 0.00 0.00 96 1017.4
20260905110616 22 246 0.0 3.2 0.00 0.00 0.00 96 1017.3
20260905105436 22 0.0 0.0 0.00 0.00 0.00 96 1017.1
20260905104216 22 0.0 0.0 0.00 0.00 0.00 96 1017.1
20260905103016 22 0.0 0.0 0.00 0.00 0.00 96 1017.0
20260905101816 22 0.0 0.0 0.00 0.00 0.00 95 1016.9
20260905100638 22 0.0 0.0 0.00 0.00 0.00 95 1016.8
20260905095436 23 0.0 0.0 0.00 0.00 0.00 95 1016.8
20260905094215 23 0.0 0.0 0.00 0.00 0.00 95 1016.9